Regional Weather Roundup
Issued by NWS Little Rock, AR

Home | Current Version | Previous Version | Graphics & Text | Print | Product List | Glossary On
Versions: 1 2 3 4 5 6 7 8 9 10 11 12 13 14 15 16 17 18 19 20 21 22 23 24 25 26 27 28 29 30 31 32 33 34 35 36 37 38 39 40 41 42 43 44 45 46 47 48 49 50
000
ASUS44 KLZK 270605
RWRLZK

WEATHER ROUNDUP FOR ARKANSAS
NATIONAL WEATHER SERVICE LITTLE ROCK AR
1200 AM CST FRI FEB 27 2015

NOTE: "FAIR" INDICATES FEW OR NO CLOUDS BELOW 12,000 FEET WITH NO
SIGNIFICANT WEATHER AND/OR OBSTRUCTIONS TO VISIBILITY.

ARZ001-003-010-029-270700-
NORTHWEST ARKANSAS

CITY           SKY/WX    TMP DP  RH WIND       PRES   REMARKS
FAYETTEVILLE   PTCLDY    18   5  57 N5        30.47S WCI  11
6HR MIN TEMP:  18; 6HR MAX TEMP:  25;

FORT SMITH     PTCLDY    25   6  44 N9        30.51R WCI  15
6HR MIN TEMP:  25; 6HR MAX TEMP:  31;

HARRISON       CLEAR     16   4  59 N10       30.45R WCI   4
6HR MIN TEMP:  15; 6HR MAX TEMP:  24;

BENTONVILLE    PTCLDY    18   5  57 NE9       30.47S WCI   6
6HR MIN TEMP:  18; 6HR MAX TEMP:  25;

ROGERS         PTCLDY    16   5  62 N9        30.47S WCI   4
6HR MIN TEMP:  16; 6HR MAX TEMP:  23;

SILOAM SPGS    MOCLDY    18   3  53 NE9       30.49R WCI   6
6HR MIN TEMP:  18; 6HR MAX TEMP:  25;

HIGHFILL       PTCLDY    17   5  59 N8        30.46F WCI   7
6HR MIN TEMP:  17; 6HR MAX TEMP:  26;

$$

ARZ004-005-016-270700-
NORTH CENTRAL ARKANSAS

CITY           SKY/WX    TMP DP  RH WIND       PRES   REMARKS
BATESVILLE     CLEAR     21  10  63 NW5       30.49R WCI  15
6HR MIN TEMP:  21; 6HR MAX TEMP:  28;

FLIPPIN        CLEAR     19   3  49 N10G17    30.49R WCI   8
6HR MIN TEMP:  19; 6HR MAX TEMP:  28;

MTN HOME       CLEAR     17   4  56 N5        30.47R WCI  10
6HR MIN TEMP:  17; 6HR MAX TEMP:  26;

$$

ARZ040-041-270700-
WEST CENTRAL ARKANSAS

CITY           SKY/WX    TMP DP  RH WIND       PRES   REMARKS
MENA           CLEAR     28  14  54 NE5       30.42F WCI  23
MOUNT IDA      CLEAR     27  12  53 CALM      30.42R
6HR MIN TEMP:  27; 6HR MAX TEMP:  34;

$$

ARZ009-017-025-026-028-270700-
NORTHEAST ARKANSAS

CITY           SKY/WX    TMP DP  RH WIND       PRES   REMARKS
CORNING        CLOUDY    25  12  58 N13       30.49R WCI  13
JONESBORO      CLOUDY    24  13  62 N10       30.48R WCI  14
6HR MIN TEMP:  24; 6HR MAX TEMP:  30;

NEWPORT        MOCLDY    24  15  68 N10       30.50R WCI  14
6HR MIN TEMP:  23; 6HR MAX TEMP:  30;

WALNUT RIDGE   PTCLDY    23   9  54 N15G21    30.50R WCI  10
6HR MIN TEMP:  23; 6HR MAX TEMP:  28;

BLYTHEVILLE    PTCLDY    23  16  74 N16       30.48R WCI  10
6HR MIN TEMP:  23; 6HR MAX TEMP:  29;

$$

ARZ022-023-033-042-044-270700-
CENTRAL ARKANSAS

CITY           SKY/WX    TMP DP  RH WIND       PRES   REMARKS
LITTLE ROCK    CLEAR     27  13  55 N10G18    30.48R WCI  17
6HR MIN TEMP:  27; 6HR MAX TEMP:  35;

N LITTLE ROCK  CLEAR     24  17  75 N9        30.48R WCI  14
6HR MIN TEMP:  24; 6HR MAX TEMP:  33;

SEARCY         CLEAR     22  13  68 N7        30.51R WCI  13
6HR MIN TEMP:  22; 6HR MAX TEMP:  31;

HOT SPRINGS    CLEAR     28  13  53 NE5       30.45R WCI  23
6HR MIN TEMP:  28; 6HR MAX TEMP:  36;

RUSSELLVILLE   CLEAR     26   7  44 N10       30.48R WCI  16
6HR MIN TEMP:  26; 6HR MAX TEMP:  34;

CLINTON        FAIR      23  10  58 N3        30.50R
$$

ARZ036-270700-
EAST ARKANSAS

CITY           SKY/WX    TMP DP  RH WIND       PRES   REMARKS
WEST MEMPHIS   CLOUDY    27  18  69 NE14G25   30.44R WCI  16
6HR MIN TEMP:  27; 6HR MAX TEMP:  31;

$$

ARZ050-053-066-070-073-270700-
SOUTHWEST ARKANSAS

CITY           SKY/WX    TMP DP  RH WIND       PRES   REMARKS
CAMDEN         CLEAR     27  19  74 MISG      30.46R
TEXARKANA      MOCLDY    32  20  61 N9        30.44R WCI  24
6HR MIN TEMP:  32; 6HR MAX TEMP:  39;

EL DORADO      PTCLDY    29  24  82 N6        30.44R WCI  23
6HR MIN TEMP:  27; 6HR MAX TEMP:  35;

DE QUEEN       MOCLDY    30  13  49 N5        30.44S WCI  25
6HR MIN TEMP:  30; 6HR MAX TEMP:  35;

$$

ARZ056-057-069-270700-
SOUTHEAST ARKANSAS

CITY           SKY/WX    TMP DP  RH WIND       PRES   REMARKS
PINE BLUFF     CLEAR     27  18  69 N13       30.46R WCI  16
6HR MIN TEMP:  27; 6HR MAX TEMP:  34;

STUTTGART      CLEAR     27  16  63 N14       30.46R WCI  15
6HR MIN TEMP:  27; 6HR MAX TEMP:  34;

MONTICELLO     CLEAR     29  19  66 VRB7      30.43R WCI  22
6HR MIN TEMP:  29; 6HR MAX TEMP:  35;


$$




USA.gov is the U.S. government's official web portal to all federal, state and local government web resources and services.